,,Stat6,,Stat2,,Stat8,,Stat9,,Stat10,,Wind1,,Wind1,
time,status,PA1M_AVG,status,PR1M_SUM,status,RH1M_AVG,status,SR1M_AVG,status,TA1M_AVG,status,W1dAve1m,status,W1sAve1m,
2003-11-22, 00:00:00,VALID,919.98,VALID,0,VALID,97.9898,VALID,0,VALID,20.5469,VALID,57,VALID,0.366832,
2003-11-22, 00:01:00,VALID,919.972,VALID,0,VALID,97.8856,VALID,0.0339617,VALID,20.5472,VALID,48,VALID,0.240057,
2003-11-22, 00:02:00,VALID,919.958,VALID,0,VALID,97.8055,VALID,0,VALID,20.5375,VALID,48,VALID,0.358789,
2003-11-22, 00:03:00,VALID,919.961,VALID,0,VALID,97.7978,VALID,0,VALID,20.5504,VALID,48,VALID,0.144903,
2003-11-22, 00:04:00,VALID,919.949,VALID,0,VALID,97.8106,VALID,-0.0169808,VALID,20.5572,VALID,48,VALID,0,
2003-11-22, 00:05:00,VALID,919.942,VALID,0,VALID,97.7648,VALID,-0.0339617,VALID,20.5472,VALID,48,VALID,0,
2003-11-22, 00:06:00,VALID,919.922,VALID,0,VALID,97.7381,VALID,0,VALID,20.5472,VALID,48,VALID,0,
2003-11-22, 00:07:00,VALID,919.903,VALID,0,VALID,97.663,VALID,0,VALID,20.5469,VALID,48,VALID,0.242708,
2003-11-22, 00:08:00,VALID,919.889,VALID,0,VALID,97.485,VALID,0,VALID,20.5211,VALID,48,VALID,0.312686,
2003-11-22, 00:09:00,VALID,919.894,VALID,0,VALID,97.4927,VALID,-0.0339617,VALID,20.4988,VALID,48,VALID,0.273438,
2003-11-22, 00:10:00,VALID,919.887,VALID,0,VALID,97.5842,VALID,0,VALID,20.4821,VALID,48,VALID,0.401677,
2003-11-22, 00:11:00,VALID,919.893,VALID,0,VALID,97.5232,VALID,-0.0169808,VALID,20.4858,VALID,48,VALID,0.506641,
2003-11-22, 00:12:00,VALID,919.884,VALID,0,VALID,97.3223,VALID,-0.0169808,VALID,20.46,VALID,48,VALID,0.587843,
2003-11-22, 00:13:00,VALID,919.88,VALID,0,VALID,97.3312,VALID,0,VALID,20.4185,VALID,48,VALID,0.756288,
2003-11-22, 00:14:00,VALID,919.874,VALID,0,VALID,97.4977,VALID,-0.0339617,VALID,20.3924,VALID,48,VALID,0.868037,
2003-11-22, 00:15:00,VALID,919.862,VALID,0,VALID,97.6173,VALID,0,VALID,20.3792,VALID,55,VALID,0.909951,
2003-11-22, 00:16:00,VALID,919.846,VALID,0,VALID,97.6592,VALID,0,VALID,20.379,VALID,58,VALID,0.810096,
2003-11-22, 00:17:00,VALID,919.833,VALID,0,VALID,97.6605,VALID,0,VALID,20.3663,VALID,58,VALID,0.68093,
2003-11-22, 00:18:00,VALID,919.811,VALID,0,VALID,97.6732,VALID,-0.0339617,VALID,20.3631,VALID,58,VALID,0.757813,
2003-11-22, 00:19:00,VALID,919.81,VALID,0,VALID,97.6529,VALID,-0.0169808,VALID,20.3502,VALID,56,VALID,0.527439,
2003-11-22, 00:20:00,VALID,919.796,VALID,0,VALID,97.6376,VALID,-0.0339617,VALID,20.3469,VALID,55,VALID,0.471839,
2003-11-22, 00:21:00,VALID,919.781,VALID,0,VALID,97.6236,VALID,0,VALID,20.3243,VALID,55,VALID,0.482887,
2003-11-22, 00:22:00,VALID,919.768,VALID,0,VALID,97.6974,VALID,-0.0169808,VALID,20.3117,VALID,55,VALID,0.502544,
2003-11-22, 00:23:00,VALID,919.752,VALID,0,VALID,97.7215,VALID,-0.0169808,VALID,20.2953,VALID,55,VALID,0.437881,
2003-11-22, 00:24:00,VALID,919.742,VALID,0,VALID,97.7317,VALID,-0.0339617,VALID,20.2858,VALID,55,VALID,0.462984,
2003-11-22, 00:25:00,VALID,919.715,VALID,0,VALID,97.7724,VALID,0.0169808,VALID,20.2726,VALID,55,VALID,0.44798,
2003-11-22, 00:26:00,VALID,919.698,VALID,0,VALID,97.7368,VALID,0,VALID,20.2498,VALID,55,VALID,0.397711,
2003-11-22, 00:27:00,VALID,919.688,VALID,0,VALID,97.7927,VALID,-0.0339617,VALID,20.2403,VALID,55,VALID,0.446875,
2003-11-22, 00:28:00,VALID,919.678,VALID,0,VALID,97.8233,VALID,0,VALID,20.2304,VALID,55,VALID,0.501272,
2003-11-22, 00:29:00,VALID,919.667,VALID,0,VALID,97.8004,VALID,-0.0169808,VALID,20.2075,VALID,53,VALID,0.608259,
2003-11-22, 00:30:00,VALID,919.652,VALID,0,VALID,97.7877,VALID,0,VALID,20.1919,VALID,37,VALID,0.641797,
2003-11-22, 00:31:00,VALID,919.646,VALID,0,VALID,97.897,VALID,0,VALID,20.1859,VALID,52,VALID,0.592416,
2003-11-22, 00:32:00,VALID,919.635,VALID,0,VALID,97.967,VALID,-0.0169808,VALID,20.1693,VALID,57,VALID,0.644626,
2003-11-22, 00:33:00,VALID,919.626,VALID,0,VALID,98.0153,VALID,0,VALID,20.169,VALID,57,VALID,0.590554,
2003-11-22, 00:34:00,VALID,919.628,VALID,0,VALID,98.0839,VALID,0,VALID,20.169,VALID,57,VALID,0.570494,
2003-11-22, 00:35:00,VALID,919.62,VALID,0,VALID,98.1335,VALID,-0.0169808,VALID,20.1854,VALID,57,VALID,0.402435,
2003-11-22, 00:36:00,VALID,919.621,VALID,0,VALID,98.1297,VALID,-0.0169808,VALID,20.1723,VALID,57,VALID,0.214844,
2003-11-22, 00:37:00,VALID,919.608,VALID,0,VALID,98.1641,VALID,0.0169808,VALID,20.169,VALID,57,VALID,0.303013,
2003-11-22, 00:38:00,VALID,919.598,VALID,0,VALID,98.2404,VALID,-0.0169808,VALID,20.1591,VALID,57,VALID,0.0980903,
2003-11-22, 00:39:00,VALID,919.587,VALID,0,VALID,98.2467,VALID,0,VALID,20.173,VALID,57,VALID,0.0636161,
2003-11-22, 00:40:00,VALID,919.582,VALID,0,VALID,98.2111,VALID,-0.0169808,VALID,20.1596,VALID,57,VALID,0.400298,
2003-11-22, 00:41:00,VALID,919.556,VALID,0,VALID,98.2442,VALID,0,VALID,20.1496,VALID,82,VALID,0.540777,
2003-11-22, 00:42:00,VALID,919.554,VALID,0,VALID,98.1285,VALID,0,VALID,20.1308,VALID,100,VALID,0.565589,
2003-11-22, 00:43:00,VALID,919.517,VALID,0,VALID,98.2276,VALID,-0.0169808,VALID,20.1012,VALID,100,VALID,0.471475,
2003-11-22, 00:44:00,VALID,919.508,VALID,0,VALID,98.2823,VALID,-0.0339617,VALID,20.0985,VALID,100,VALID,0.308408,
2003-11-22, 00:45:00,VALID,919.502,VALID,0,VALID,98.3815,VALID,-0.0679233,VALID,20.0888,VALID,100,VALID,0.152616,
2003-11-22, 00:46:00,VALID,919.495,VALID,0,VALID,98.4743,VALID,0,VALID,20.095,VALID,100,VALID,0,
2003-11-22, 00:47:00,VALID,919.487,VALID,0,VALID,98.4731,VALID,0,VALID,20.1146,VALID,100,VALID,0,
2003-11-22, 00:48:00,VALID,919.49,VALID,0,VALID,98.379,VALID,0.0169808,VALID,20.1176,VALID,100,VALID,0,
2003-11-22, 00:49:00,VALID,919.485,VALID,0,VALID,98.2429,VALID,0,VALID,20.1015,VALID,100,VALID,0,
2003-11-22, 00:50:00,VALID,919.491,VALID,0,VALID,98.2429,VALID,0,VALID,20.095,VALID,100,VALID,0.0241477,
2003-11-22, 00:51:00,VALID,919.49,VALID,0,VALID,98.3039,VALID,0,VALID,20.098,VALID,100,VALID,0.335742,
2003-11-22, 00:52:00,VALID,919.493,VALID,0,VALID,98.3599,VALID,0,VALID,20.0915,VALID,100,VALID,0.266578,
2003-11-22, 00:53:00,VALID,919.496,VALID,0,VALID,98.5036,VALID,-0.0339617,VALID,20.1077,VALID,100,VALID,0.332031,
2003-11-22, 00:54:00,VALID,919.485,VALID,0,VALID,98.6295,VALID,-0.0339617,VALID,20.1146,VALID,100,VALID,0.324826,
2003-11-22, 00:55:00,VALID,919.472,VALID,0,VALID,98.749,VALID,0,VALID,20.1084,VALID,99,VALID,0.16311,
2003-11-22, 00:56:00,VALID,919.455,VALID,0,VALID,98.8393,VALID,-0.0169808,VALID,20.0982,VALID,92,VALID,0.00837054,
2003-11-22, 00:57:00,VALID,919.441,VALID,0,VALID,98.8889,VALID,-0.0339617,VALID,20.0888,VALID,82,VALID,0.111049,
2003-11-22, 00:58:00,VALID,919.424,VALID,0,VALID,98.8876,VALID,0,VALID,20.0885,VALID,49,VALID,0.254192,
2003-11-22, 00:59:00,VALID,919.405,VALID,0,VALID,98.9321,VALID,-0.0169808,VALID,20.0925,VALID,5,VALID,0.223357,
2003-11-22, 01:00:00,VALID,919.378,VALID,0,VALID,98.9448,VALID,-0.0169808,VALID,20.0893,VALID,5,VALID,0.130729,
2003-11-22, 01:01:00,VALID,919.354,VALID,0,VALID,98.9092,VALID,0,VALID,20.0759,VALID,5,VALID,0.258413,
2003-11-22, 01:02:00,VALID,919.339,VALID,0,VALID,98.8736,VALID,0,VALID,20.059,VALID,5,VALID,0.433771,
2003-11-22, 01:03:00,VALID,919.323,VALID,0,VALID,98.838,VALID,0,VALID,20.053,VALID,6,VALID,0.74295,
2003-11-22, 01:04:00,VALID,919.299,VALID,0,VALID,98.7375,VALID,0,VALID,20.0215,VALID,6,VALID,0.968205,
2003-11-22, 01:05:00,VALID,919.284,VALID,0,VALID,98.8113,VALID,0,VALID,19.982,VALID,13,VALID,1.11736,
2003-11-22, 01:06:00,VALID,919.263,VALID,0,VALID,98.8774,VALID,0,VALID,19.9884,VALID,18,VALID,1.24638,
2003-11-22, 01:07:00,VALID,919.257,VALID,0,VALID,98.8444,VALID,0,VALID,19.979,VALID,16,VALID,1.24291,
2003-11-22, 01:08:00,VALID,919.242,VALID,0,VALID,98.7261,VALID,0.0169808,VALID,19.9596,VALID,15,VALID,1.10084,
2003-11-22, 01:09:00,VALID,919.244,VALID,0,VALID,98.66,VALID,0,VALID,19.94,VALID,8,VALID,0.789757,
2003-11-22, 01:10:00,VALID,919.246,VALID,0,VALID,98.6841,VALID,0,VALID,19.933,VALID,329,VALID,0.692042,
2003-11-22, 01:11:00,VALID,919.256,VALID,0,VALID,98.735,VALID,0.0339617,VALID,19.9397,VALID,294,VALID,0.419457,
2003-11-22, 01:12:00,VALID,919.238,VALID,0,VALID,98.8113,VALID,0,VALID,19.9524,VALID,288,VALID,0.111852,
2003-11-22, 01:13:00,VALID,919.231,VALID,0,VALID,98.8838,VALID,0,VALID,19.9787,VALID,288,VALID,0,
2003-11-22, 01:14:00,VALID,919.222,VALID,0,VALID,98.9677,VALID,-0.0169808,VALID,20.0016,VALID,288,VALID,0,
2003-11-22, 01:15:00,VALID,919.21,VALID,0,VALID,99.0758,VALID,0,VALID,20.0207,VALID,288,VALID,0,
2003-11-22, 01:16:00,VALID,919.197,VALID,0,VALID,99.1152,VALID,-0.0169808,VALID,20.0312,VALID,288,VALID,0,
2003-11-22, 01:17:00,VALID,919.188,VALID,0,VALID,99.1661,VALID,0,VALID,20.0535,VALID,288,VALID,0,
2003-11-22, 01:18:00,VALID,919.172,VALID,0,VALID,99.208,VALID,0,VALID,20.0764,VALID,288,VALID,0,
2003-11-22, 01:19:00,VALID,919.153,VALID,0,VALID,99.2437,VALID,0,VALID,20.0791,VALID,288,VALID,0,
2003-11-22, 01:20:00,VALID,919.128,VALID,0,VALID,99.2729,VALID,0.0169808,VALID,20.1049,VALID,288,VALID,0,
2003-11-22, 01:21:00,VALID,919.11,VALID,0,VALID,99.2373,VALID,0.0169808,VALID,20.1047,VALID,288,VALID,0.10637,
2003-11-22, 01:22:00,VALID,919.096,VALID,0,VALID,99.2513,VALID,0.0339617,VALID,20.1213,VALID,312,VALID,0.355469,
2003-11-22, 01:23:00,VALID,919.061,VALID,0,VALID,99.264,VALID,0.0169808,VALID,20.1504,VALID,6,VALID,0.59096,
2003-11-22, 01:24:00,VALID,919.042,VALID,0,VALID,99.1356,VALID,0.0509425,VALID,20.1405,VALID,9,VALID,0.517187,
2003-11-22, 01:25:00,VALID,919.006,VALID,0,VALID,99.1356,VALID,0.0339617,VALID,20.1338,VALID,9,VALID,0.53316,
2003-11-22, 01:26:00,VALID,918.987,VALID,0,VALID,99.1114,VALID,0.0679233,VALID,20.1467,VALID,9,VALID,0.628729,
2003-11-22, 01:27:00,VALID,918.968,VALID,0,VALID,99.0618,VALID,0.0679233,VALID,20.133,VALID,13,VALID,0.60973,
2003-11-22, 01:28:00,VALID,918.938,VALID,0,VALID,99.0974,VALID,0.0509425,VALID,20.1432,VALID,24,VALID,0.725291,
2003-11-22, 01:29:00,VALID,918.924,VALID,0,VALID,99.1419,VALID,0.0679233,VALID,20.1499,VALID,15,VALID,0.87593,
2003-11-22, 01:30:00,VALID,918.893,VALID,0,VALID,99.1852,VALID,0.0849042,VALID,20.1661,VALID,22,VALID,0.947569,
2003-11-22, 01:31:00,VALID,918.863,VALID,0,VALID,99.2093,VALID,0.0169808,VALID,20.1752,VALID,23,VALID,0.877083,
2003-11-22, 01:32:00,VALID,918.842,VALID,0,VALID,99.1966,VALID,0.0679233,VALID,20.1884,VALID,32,VALID,0.326219,
2003-11-22, 01:33:00,VALID,918.819,VALID,0,VALID,99.2093,VALID,0.0509425,VALID,20.1916,VALID,36,VALID,0.188244,
2003-11-22, 01:34:00,VALID,918.79,VALID,0,VALID,99.2017,VALID,0.0679233,VALID,20.1914,VALID,36,VALID,0.284412,
2003-11-22, 01:35:00,VALID,918.774,VALID,0,VALID,99.1839,VALID,0.0339617,VALID,20.2048,VALID,36,VALID,0.177507,
2003-11-22, 01:36:00,VALID,918.75,VALID,0,VALID,99.1712,VALID,-0.0679233,VALID,20.216,VALID,31,VALID,0.385069,
2003-11-22, 01:37:00,VALID,918.735,VALID,0,VALID,99.1203,VALID,-0.0339617,VALID,20.219,VALID,23,VALID,0.311955,
2003-11-22, 01:38:00,VALID,918.71,VALID,0,VALID,99.0911,VALID,-0.0509425,VALID,20.2125,VALID,24,VALID,0.593936,
2003-11-22, 01:39:00,VALID,918.694,VALID,0,VALID,99.0605,VALID,-0.0339617,VALID,20.2255,VALID,21,VALID,0.49564,
2003-11-22, 01:40:00,VALID,918.693,VALID,0,VALID,98.969,VALID,-0.0169808,VALID,20.222,VALID,24,VALID,0.537157,
2003-11-22, 01:41:00,VALID,918.676,VALID,0,VALID,98.8711,VALID,-0.0679233,VALID,20.2225,VALID,24,VALID,0.531944,
2003-11-22, 01:42:00,VALID,918.685,VALID,0,VALID,98.777,VALID,0,VALID,20.2131,VALID,24,VALID,0.231836,
2003-11-22, 01:43:00,VALID,918.684,VALID,0,VALID,98.7159,VALID,-0.0509425,VALID,20.2063,VALID,24,VALID,0.0754616,
2003-11-22, 01:44:00,VALID,918.685,VALID,0,VALID,98.6206,VALID,-0.0679233,VALID,20.1894,VALID,24,VALID,0.368608,
2003-11-22, 01:45:00,VALID,918.682,VALID,0,VALID,98.5799,VALID,-0.0849042,VALID,20.2061,VALID,24,VALID,0.490234,
2003-11-22, 01:46:00,VALID,918.675,VALID,0,VALID,98.4794,VALID,-0.0509425,VALID,20.1929,VALID,18,VALID,0.619097,
2003-11-22, 01:47:00,VALID,918.664,VALID,0,VALID,98.4286,VALID,-0.0169808,VALID,20.1999,VALID,13,VALID,0.742746,
2003-11-22, 01:48:00,VALID,918.661,VALID,0,VALID,98.4667,VALID,-0.0339617,VALID,20.1805,VALID,20,VALID,0.85556,
2003-11-22, 01:49:00,VALID,918.66,VALID,0,VALID,98.571,VALID,-0.0509425,VALID,20.1477,VALID,19,VALID,0.751334,
2003-11-22, 01:50:00,VALID,918.659,VALID,0,VALID,98.6752,VALID,-0.0509425,VALID,20.1221,VALID,16,VALID,0.478468,
2003-11-22, 01:51:00,VALID,918.647,VALID,0,VALID,98.8494,VALID,-0.0679233,VALID,20.1224,VALID,15,VALID,0.326882,
2003-11-22, 01:52:00,VALID,918.636,VALID,0,VALID,98.9881,VALID,-0.0679233,VALID,20.1159,VALID,15,VALID,0.373224,
2003-11-22, 01:53:00,VALID,918.625,VALID,0,VALID,99.0148,VALID,-0.0849042,VALID,20.1022,VALID,15,VALID,0.368712,
2003-11-22, 01:54:00,VALID,918.622,VALID,0,VALID,99.0237,VALID,-0.0169808,VALID,20.0836,VALID,15,VALID,0.513021,
2003-11-22, 01:55:00,VALID,918.613,VALID,0,VALID,99.0224,VALID,-0.0339617,VALID,20.0508,VALID,16,VALID,0.575917,
2003-11-22, 01:56:00,VALID,918.6,VALID,0,VALID,99.0402,VALID,-0.0849042,VALID,20.0314,VALID,16,VALID,0.658156,
2003-11-22, 01:57:00,VALID,918.577,VALID,0,VALID,98.9842,VALID,-0.0679233,VALID,20.012,VALID,17,VALID,0.678757,
2003-11-22, 01:58:00,VALID,918.556,VALID,0,VALID,98.8851,VALID,-0.0509425,VALID,19.98,VALID,17,VALID,0.614099,
2003-11-22, 01:59:00,VALID,918.537,VALID,0,VALID,98.8914,VALID,-0.0169808,VALID,19.938,VALID,19,VALID,0.553865,
2003-11-22, 02:00:00,VALID,918.513,VALID,0,VALID,99.0059,VALID,-0.0849042,VALID,19.9412,VALID,26,VALID,0.860119,
2003-11-22, 02:01:00,VALID,918.5,VALID,0,VALID,99.0046,VALID,-0.0339617,VALID,19.9189,VALID,27,VALID,0.763317,
2003-11-22, 02:02:00,VALID,918.47,VALID,0,VALID,98.997,VALID,-0.0679233,VALID,19.8928,VALID,32,VALID,0.671131,
2003-11-22, 02:03:00,VALID,918.447,VALID,0,VALID,99.0046,VALID,-0.0679233,VALID,19.86,VALID,35,VALID,0.609012,
2003-11-22, 02:04:00,VALID,918.438,VALID,0,VALID,99.0669,VALID,-0.0679233,VALID,19.8478,VALID,42,VALID,0.664583,
2003-11-22, 02:05:00,VALID,918.409,VALID,0,VALID,99.0682,VALID,-0.0679233,VALID,19.8287,VALID,42,VALID,0.536932,
2003-11-22, 02:06:00,VALID,918.41,VALID,0,VALID,99.0987,VALID,-0.101885,VALID,19.7959,VALID,42,VALID,0.257639,
2003-11-22, 02:07:00,VALID,918.379,VALID,0,VALID,99.0733,VALID,-0.0849042,VALID,19.7703,VALID,42,VALID,0.228051,
2003-11-22, 02:08:00,VALID,918.366,VALID,0,VALID,99.0923,VALID,-0.0679233,VALID,19.7412,VALID,42,VALID,0.0773628,
2003-11-22, 02:09:00,VALID,918.346,VALID,0,VALID,99.1241,VALID,-0.0679233,VALID,19.7283,VALID,42,VALID,0.208891,
2003-11-22, 02:10:00,VALID,918.318,VALID,0,VALID,99.1356,VALID,-0.0679233,VALID,19.6992,VALID,42,VALID,0.291061,
2003-11-22, 02:11:00,VALID,918.296,VALID,0,VALID,99.2195,VALID,-0.0849042,VALID,19.6831,VALID,40,VALID,0.322674,
2003-11-22, 02:12:00,VALID,918.268,VALID,0,VALID,99.2767,VALID,-0.0849042,VALID,19.6704,VALID,40,VALID,0.221657,
2003-11-22, 02:13:00,VALID,918.245,VALID,0,VALID,99.2525,VALID,-0.0849042,VALID,19.6448,VALID,40,VALID,0.296697,
2003-11-22, 02:14:00,VALID,918.232,VALID,0,VALID,99.2538,VALID,-0.0509425,VALID,19.6051,VALID,40,VALID,0.109375,
2003-11-22, 02:15:00,VALID,918.219,VALID,0,VALID,99.3683,VALID,-0.0509425,VALID,19.6021,VALID,40,VALID,0.00503472,
2003-11-22, 02:16:00,VALID,918.182,VALID,0,VALID,99.3924,VALID,-0.0679233,VALID,19.6056,VALID,40,VALID,0.00724085,
2003-11-22, 02:17:00,VALID,918.183,VALID,0,VALID,99.4306,VALID,-0.0849042,VALID,19.5959,VALID,35,VALID,0.436228,
2003-11-22, 02:18:00,VALID,918.157,VALID,0,VALID,99.4814,VALID,-0.101885,VALID,19.5989,VALID,29,VALID,0.600391,
2003-11-22, 02:19:00,VALID,918.129,VALID,0,VALID,99.4827,VALID,-0.0679233,VALID,19.5996,VALID,27,VALID,0.556734,
2003-11-22, 02:20:00,VALID,918.121,VALID,0,VALID,99.4916,VALID,-0.0849042,VALID,19.58,VALID,22,VALID,0.424237,
2003-11-22, 02:21:00,VALID,918.082,VALID,0,VALID,99.4878,VALID,0,VALID,19.5653,VALID,23,VALID,0.493823,
2003-11-22, 02:22:00,VALID,918.056,VALID,0,VALID,99.5132,VALID,0,VALID,19.5656,VALID,34,VALID,0.862537,
2003-11-22, 02:23:00,VALID,918.055,VALID,0,VALID,99.5081,VALID,0,VALID,19.5467,VALID,41,VALID,0.959449,
2003-11-22, 02:24:00,VALID,918.035,VALID,0,VALID,99.4713,VALID,0,VALID,19.504,VALID,40,VALID,0.985734,
2003-11-22, 02:25:00,VALID,918.023,VALID,0,VALID,99.484,VALID,0.0169808,VALID,19.4849,VALID,31,VALID,0.701601,
2003-11-22, 02:26:00,VALID,918.028,VALID,0,VALID,99.4636,VALID,0,VALID,19.4526,VALID,30,VALID,0.692224,
2003-11-22, 02:27:00,VALID,918.011,VALID,0,VALID,99.4992,VALID,0,VALID,19.417,VALID,34,VALID,0.631696,
2003-11-22, 02:28:00,VALID,918,VALID,0,VALID,99.5501,VALID,0.0169808,VALID,19.4044,VALID,62,VALID,0.591025,
2003-11-22, 02:29:00,VALID,917.992,VALID,0,VALID,99.6111,VALID,0,VALID,19.3847,VALID,74,VALID,0.434261,
2003-11-22, 02:30:00,VALID,917.986,VALID,0,VALID,99.6277,VALID,0.0169808,VALID,19.352,VALID,103,VALID,0.622638,
2003-11-22, 02:31:00,VALID,917.973,VALID,0,VALID,99.6646,VALID,0.0339617,VALID,19.3395,VALID,109,VALID,0.5,
2003-11-22, 02:32:00,VALID,917.948,VALID,0,VALID,99.7332,VALID,-0.0169808,VALID,19.3174,VALID,126,VALID,0.74184,
2003-11-22, 02:33:00,VALID,917.935,VALID,0,VALID,99.8248,VALID,0.0169808,VALID,19.3045,VALID,127,VALID,0.711119,
2003-11-22, 02:34:00,VALID,917.919,VALID,0,VALID,99.882,VALID,0.0169808,VALID,19.2911,VALID,126,VALID,0.750694,
2003-11-22, 02:35:00,VALID,917.914,VALID,0,VALID,99.9265,VALID,0,VALID,19.2951,VALID,128,VALID,0.802871,
2003-11-22, 02:36:00,VALID,917.912,VALID,0,VALID,99.9893,VALID,0.0339617,VALID,19.2913,VALID,122,VALID,0.715216,
2003-11-22, 02:37:00,VALID,917.905,VALID,0,VALID,99.9977,VALID,0,VALID,19.2851,VALID,122,VALID,0.339453,
2003-11-22, 02:38:00,VALID,917.912,VALID,0,VALID,100,VALID,0,VALID,19.2747,VALID,122,VALID,0.0977471,
2003-11-22, 02:39:00,VALID,917.904,VALID,0,VALID,100,VALID,0,VALID,19.265,VALID,122,VALID,0,
2003-11-22, 02:40:00,VALID,917.899,VALID,0,VALID,100,VALID,0,VALID,19.2784,VALID,122,VALID,0,
2003-11-22, 02:41:00,VALID,917.913,VALID,0,VALID,100,VALID,0,VALID,19.3008,VALID,122,VALID,0,
2003-11-22, 02:42:00,VALID,917.901,VALID,0,VALID,100,VALID,0,VALID,19.3236,VALID,49,VALID,0.35665,
2003-11-22, 02:43:00,VALID,917.911,VALID,0,VALID,100,VALID,0.0169808,VALID,19.3532,VALID,42,VALID,0.376065,
2003-11-22, 02:44:00,VALID,917.9,VALID,0,VALID,100,VALID,0.0169808,VALID,19.3751,VALID,34,VALID,0.343568,
2003-11-22, 02:45:00,VALID,917.887,VALID,0,VALID,100,VALID,0,VALID,19.3984,VALID,36,VALID,0.208757,
2003-11-22, 02:46:00,VALID,917.882,VALID,0,VALID,100,VALID,0,VALID,19.388,VALID,82,VALID,0.473366,
2003-11-22, 02:47:00,VALID,917.874,VALID,0,VALID,100,VALID,0,VALID,19.382,VALID,84,VALID,0.384233,
2003-11-22, 02:48:00,VALID,917.846,VALID,0,VALID,100,VALID,0.0169808,VALID,19.3751,VALID,65,VALID,0.556686,
2003-11-22, 02:49:00,VALID,917.852,VALID,0,VALID,100,VALID,-0.0169808,VALID,19.3912,VALID,57,VALID,0.423921,
2003-11-22, 02:50:00,VALID,917.832,VALID,0,VALID,100,VALID,0,VALID,19.3917,VALID,85,VALID,0.310826,
2003-11-22, 02:51:00,VALID,917.834,VALID,0,VALID,100,VALID,-0.101885,VALID,19.3902,VALID,96,VALID,0.319141,
2003-11-22, 02:52:00,VALID,917.833,VALID,0,VALID,100,VALID,-0.101885,VALID,19.3996,VALID,93,VALID,0.206731,
2003-11-22, 02:53:00,VALID,917.83,VALID,0,VALID,100,VALID,-0.0849042,VALID,19.3959,VALID,88,VALID,0.198361,
2003-11-22, 02:54:00,VALID,917.82,VALID,0,VALID,100,VALID,-0.101885,VALID,19.416,VALID,69,VALID,0.226744,
2003-11-22, 02:55:00,VALID,917.811,VALID,0,VALID,100,VALID,-0.118866,VALID,19.4257,VALID,57,VALID,0.062872,
2003-11-22, 02:56:00,VALID,917.829,VALID,0,VALID,100,VALID,-0.118866,VALID,19.4448,VALID,57,VALID,0.0114329,
2003-11-22, 02:57:00,VALID,917.812,VALID,0,VALID,100,VALID,-0.101885,VALID,19.4553,VALID,57,VALID,0,
2003-11-22, 02:58:00,VALID,917.808,VALID,0,VALID,100,VALID,-0.118866,VALID,19.4577,VALID,57,VALID,0.0168968,
2003-11-22, 02:59:00,VALID,917.815,VALID,0,VALID,100,VALID,-0.101885,VALID,19.4871,VALID,57,VALID,0.000952744,
2003-11-22, 03:00:00,VALID,917.807,VALID,0,VALID,100,VALID,-0.101885,VALID,19.5,VALID,57,VALID,0,
2003-11-22, 03:01:00,VALID,917.788,VALID,0,VALID,100,VALID,-0.101885,VALID,19.4965,VALID,57,VALID,0,
2003-11-22, 03:02:00,VALID,917.797,VALID,0,VALID,100,VALID,-0.118866,VALID,19.5161,VALID,57,VALID,0.117369,
2003-11-22, 03:03:00,VALID,917.795,VALID,0,VALID,100,VALID,-0.101885,VALID,19.5161,VALID,57,VALID,0.206003,
2003-11-22, 03:04:00,VALID,917.788,VALID,0,VALID,100,VALID,-0.0849042,VALID,19.5546,VALID,57,VALID,0.0277344,
2003-11-22, 03:05:00,VALID,917.795,VALID,0,VALID,100,VALID,-0.0679233,VALID,19.5606,VALID,57,VALID,0.0533854,
2003-11-22, 03:06:00,VALID,917.79,VALID,0,VALID,100,VALID,-0.0679233,VALID,19.5738,VALID,57,VALID,0,
2003-11-22, 03:07:00,VALID,917.795,VALID,0,VALID,100,VALID,-0.118866,VALID,19.5738,VALID,57,VALID,0,
2003-11-22, 03:08:00,VALID,917.801,VALID,0,VALID,100,VALID,-0.0849042,VALID,19.5964,VALID,57,VALID,0,
2003-11-22, 03:09:00,VALID,917.8,VALID,0,VALID,100,VALID,-0.101885,VALID,19.6423,VALID,57,VALID,0,
2003-11-22, 03:10:00,VALID,917.802,VALID,0,VALID,100,VALID,-0.118866,VALID,19.6548,VALID,57,VALID,0,
2003-11-22, 03:11:00,VALID,917.801,VALID,0,VALID,100,VALID,-0.101885,VALID,19.6612,VALID,57,VALID,0,
2003-11-22, 03:12:00,VALID,917.793,VALID,0,VALID,100,VALID,-0.135847,VALID,19.6746,VALID,57,VALID,0,
2003-11-22, 03:13:00,VALID,917.783,VALID,0,VALID,100,VALID,-0.118866,VALID,19.6873,VALID,57,VALID,0,
2003-11-22, 03:14:00,VALID,917.775,VALID,0,VALID,100,VALID,-0.135847,VALID,19.6903,VALID,57,VALID,0,
2003-11-22, 03:15:00,VALID,917.773,VALID,0,VALID,100,VALID,-0.118866,VALID,19.7005,VALID,57,VALID,0,
2003-11-22, 03:16:00,VALID,917.756,VALID,0,VALID,100,VALID,-0.101885,VALID,19.7134,VALID,57,VALID,0.0520198,
2003-11-22, 03:17:00,VALID,917.727,VALID,0,VALID,100,VALID,-0.101885,VALID,19.7258,VALID,57,VALID,0.0127378,
2003-11-22, 03:18:00,VALID,917.71,VALID,0,VALID,100,VALID,-0.101885,VALID,19.7519,VALID,57,VALID,0,
2003-11-22, 03:19:00,VALID,917.698,VALID,0,VALID,100,VALID,-0.101885,VALID,19.7772,VALID,57,VALID,0.116338,
2003-11-22, 03:20:00,VALID,917.694,VALID,0,VALID,100,VALID,-0.101885,VALID,19.7969,VALID,57,VALID,0.0301599,
2003-11-22, 03:21:00,VALID,917.673,VALID,0,VALID,100,VALID,0.0169808,VALID,19.8217,VALID,57,VALID,0,
2003-11-22, 03:22:00,VALID,917.67,VALID,0,VALID,100,VALID,0.0169808,VALID,19.8341,VALID,57,VALID,0,
2003-11-22, 03:23:00,VALID,917.678,VALID,0,VALID,100,VALID,0.0339617,VALID,19.8346,VALID,57,VALID,0,
2003-11-22, 03:24:00,VALID,917.681,VALID,0,VALID,100,VALID,0,VALID,19.8341,VALID,57,VALID,0,
2003-11-22, 03:25:00,VALID,917.689,VALID,0,VALID,100,VALID,0.0339617,VALID,19.8433,VALID,57,VALID,0,
2003-11-22, 03:26:00,VALID,917.69,VALID,0,VALID,100,VALID,0.0339617,VALID,19.8436,VALID,57,VALID,0,
2003-11-22, 03:27:00,VALID,917.698,VALID,0,VALID,100,VALID,0,VALID,19.85,VALID,57,VALID,0,
2003-11-22, 03:28:00,VALID,917.7,VALID,0,VALID,100,VALID,0.0169808,VALID,19.8632,VALID,57,VALID,0,
2003-11-22, 03:29:00,VALID,917.697,VALID,0,VALID,100,VALID,0.0169808,VALID,19.8557,VALID,48,VALID,0.101758,
2003-11-22, 03:30:00,VALID,917.686,VALID,0,VALID,100,VALID,0,VALID,19.8786,VALID,35,VALID,0.0337936,
2003-11-22, 03:31:00,VALID,917.673,VALID,0,VALID,100,VALID,0,VALID,19.8883,VALID,35,VALID,0.0423329,
2003-11-22, 03:32:00,VALID,917.676,VALID,0,VALID,100,VALID,0.0339617,VALID,19.8818,VALID,35,VALID,0.334077,
2003-11-22, 03:33:00,VALID,917.682,VALID,0,VALID,100,VALID,0.0339617,VALID,19.8853,VALID,32,VALID,0.600654,
2003-11-22, 03:34:00,VALID,917.678,VALID,0,VALID,100,VALID,0,VALID,19.8848,VALID,32,VALID,0.471608,
2003-11-22, 03:35:00,VALID,917.688,VALID,0,VALID,100,VALID,0.0169808,VALID,19.9179,VALID,32,VALID,0.343023,
2003-11-22, 03:36:00,VALID,917.681,VALID,0,VALID,100,VALID,-0.101885,VALID,19.9355,VALID,32,VALID,0.426367,
2003-11-22, 03:37:00,VALID,917.686,VALID,0,VALID,100,VALID,-0.101885,VALID,19.9417,VALID,32,VALID,0.412064,
2003-11-22, 03:38:00,VALID,917.69,VALID,0,VALID,100,VALID,-0.0679233,VALID,19.9412,VALID,25,VALID,0.695833,
2003-11-22, 03:39:00,VALID,917.7,VALID,0,VALID,100,VALID,-0.0509425,VALID,19.9541,VALID,17,VALID,0.762463,
2003-11-22, 03:40:00,VALID,917.702,VALID,0,VALID,100,VALID,-0.101885,VALID,19.9218,VALID,21,VALID,0.839504,
2003-11-22, 03:41:00,VALID,917.694,VALID,0,VALID,100,VALID,-0.0849042,VALID,19.9124,VALID,12,VALID,0.972929,